Showing default

HYPSO-1, 51053

Orbit data source: Space-Track

HYPSO-1, 51053 is a payload satellite owned by NTNU (NO) in SSO that was launched on Thu, 13 Jan 2022 UTC via an FALCON 9 launch vehicle from the Air Force Eastern Test Range (AFETR). Payload-class satellites include a variety of spacecraft equipped with specific instruments for various scientific and technological missions. These include communications satellites like Starlink; space stations such as the ISS; scientific satellites like the Hubble; Earth observation satellites from companies like Planet Labs, Umbra, and HawkEye 360; GPS; miniature CubeSats for education and research; and military/defense satellites.

Not visible in the next 10 days
Identifier
51053, 2022-002BX
Orbit
SSO
Country
Flag of NONO / NOR
Related business
Manufacturer
NanoAvionics
Mission
Operational Amateur Imaging
Bus & Motor
CUBESAT 6U, Unknown motor
Mass
~10 kg wet, ~10 kg dry
Launch date (UTC)
2022-01-13 (5 years ago)
Launch vehicle
FALCON 9
Launch site
Air Force Eastern Test Range (AFETR)
Object type
Payload
Rocket body
Debris
Shape & HBR
Box + 2 Pan, 0.2 m
Radar Cross Section
0.080 m², Medium (>0.1 m² and < 1m²)

Expand to show TLE details & history
Last TLE update: 13 hours ago

TLE from 13 hours ago
0 HYPSO-1
1 51053U 22002BX  26207.61352624  .00092414  00000-0  57160-3 0  9998
2 51053  97.2798 290.4284 0003870 171.6207 188.5124 15.76816442253114
Epoch: 2026-07-26T14:43Z
TLE epoch observation values (Epoch: 2026-07-26T14:43:28.667Z)
Latitude
-0.00004°
Longitude
125.25002°
Altitude
345.21 km
Speed
7.7 km/s
True Right ascension
19h 21m 42s
True Declination
0° 00' 00"
Sunlit
Object was in full shadow at epoch
Visualization orbit readout
Latitude
Unknown
Longitude
Unknown
Altitude
Unknown
Speed
Unknown
Apparent Right ascension
Unknown
Apparent Declination
Unknown
Sunlit
N/A
Visualization observer readout
Local Sidereal Time
16:50:40
Azimuth
Unknown
Elevation
Unknown
Doppler factor
Unknown
Orbital elements
Apogee altitude
338.951 km
Perigee altitude
333.754 km
Semi-major axis
6,714.489 km
Eccentricity
0.00039
Inclination
97.2798°
RAAN
290.4284°
Arg. of periapsis
171.6207°
True anomaly
188.50584°
Mean anomaly
188.5124°
Eccentric anomaly
188.50912°
Mean motion
3.94479 °/min
Orbital period
91.26 mins
BSTAR
0.0005716
Loading maneuver chart data...
Computing Atmospheric mass density...

Documentation

Showing up to 5 results
|